Weather reports worldwide

Advertisment
Jacksonville, fl, United States of America (2072905): temperature & dewpoint: 17.10.2019 15:00:00 - 23.10.2019 15:00:00 (EDT)Jacksonville, fl, United States of America (2072905): wind speed & gusts: 17.10.2019 15:00:00 - 23.10.2019 15:00:00 (EDT)Jacksonville, fl, United States of America (2072905): wind direction: 17.10.2019 15:00:00 - 23.10.2019 15:00:00 (EDT)Jacksonville, fl, United States of America (2072905): reduced air pressure: 17.10.2019 15:00:00 - 23.10.2019 15:00:00 (EDT)Jacksonville, fl, United States of America (2072905): visibility: 17.10.2019 15:00:00 - 23.10.2019 15:00:00 (EDT)Jacksonville, fl, United States of America (2072905): precipitation: 17.10.2019 15:00:00 - 23.10.2019 15:00:00 (EDT)
Date & Time tt [°C] td [°C] ff [km/h] ff [kn] fx [km/h] fx [kn] dd ppp [hPa] vv [km] rr [mm]
23.10.2019 15:00:00 24,4 8,3 15 8 - - NNE 1019,0 16 -
23.10.2019 14:00:00 23,9 8,3 16 9 - - N 1019,4 16 -
23.10.2019 13:00:00 22,2 7,2 13 7 - - N 1020,1 16 -
23.10.2019 12:00:00 21,7 8,3 18 10 - - NNE 1020,6 16 -
23.10.2019 11:00:00 20,6 7,8 21 11 - - NNE 1020,5 16 -
23.10.2019 10:00:00 18,9 7,2 24 13 - - N 1020,3 16 -
23.10.2019 09:00:00 17,2 7,8 26 14 - - NNE 1020,0 16 -
23.10.2019 08:00:00 16,1 8,3 29 16 - - N 1019,0 16 -
23.10.2019 07:00:00 16,7 8,3 22 12 - - NNW 1018,5 16 -
23.10.2019 06:00:00 17,2 8,3 21 11 - - N 1017,8 16 -
23.10.2019 05:00:00 17,8 7,8 21 11 - - N 1017,3 16 -
23.10.2019 04:00:00 18,9 7,8 26 14 - - NNW 1017,1 16 -
23.10.2019 03:00:00 19,4 8,3 22 12 - - NNW 1017,3 16 -
23.10.2019 02:00:00 21,1 8,9 24 13 - - NW 1017,1 16 -
23.10.2019 01:00:00 22,2 10,0 28 15 - - NNW 1016,8 16 -
23.10.2019 00:00:00 22,8 14,4 16 9 - - NW 1016,6 16 -
22.10.2019 23:00:00 23,3 17,8 22 12 - - NW 1016,4 16 -
22.10.2019 22:00:00 24,4 21,7 9 5 - - W 1015,7 16 -
22.10.2019 21:00:00 24,4 22,2 9 5 - - W 1015,1 16 -
22.10.2019 20:00:00 25,0 22,2 9 5 - - W 1014,5 16 -
22.10.2019 19:00:00 25,6 22,2 13 7 - - WSW 1013,8 16 -
22.10.2019 18:00:00 25,0 22,8 15 8 - - W 1013,3 16 -
22.10.2019 17:00:00 25,0 22,8 15 8 - - W 1013,1 16 0,3
22.10.2019 16:00:00 25,0 22,2 16 9 - - W 1013,4 4,8 2,5
22.10.2019 15:00:00 26,1 22,2 21 11 68 37 W 1012,4 8 1,5
22.10.2019 14:00:00 31,1 21,7 28 15 - - W 1012,5 16 0,0
22.10.2019 13:00:00 29,4 22,2 26 14 - - SW 1013,5 16 0,0
22.10.2019 12:00:00 27,8 22,8 22 12 - - WSW 1014,1 16 -
22.10.2019 11:00:00 26,7 23,9 18 10 - - SW 1014,6 16 -
22.10.2019 10:00:00 25,0 23,9 16 9 - - SSW 1014,6 16 -
22.10.2019 09:00:00 23,9 23,9 16 9 - - S 1014,4 11 -
22.10.2019 08:00:00 24,4 23,3 13 7 - - SSW 1014,5 11 -
22.10.2019 07:00:00 24,4 23,3 15 8 - - S 1014,0 11 -
22.10.2019 06:00:00 24,4 23,3 15 8 - - SSW 1014,2 11 -
22.10.2019 05:00:00 24,4 23,3 11 6 - - SSW 1014,1 6 -
22.10.2019 04:00:00 24,4 23,3 11 6 - - SSW 1014,2 1,6 -
22.10.2019 03:00:00 25,0 22,8 8 4 - - SSW 1014,5 16 -
22.10.2019 02:00:00 25,0 22,8 9 5 - - SSW 1015,0 16 -
22.10.2019 01:00:00 25,0 22,8 13 7 - - SSW 1015,2 16 -
22.10.2019 00:00:00 25,0 23,3 16 9 - - SSW 1014,8 16 -
21.10.2019 23:00:00 25,0 23,3 13 7 - - SSW 1015,2 16 -
21.10.2019 22:00:00 24,4 22,8 15 8 - - S 1014,7 16 0,0
21.10.2019 21:00:00 24,4 23,3 11 6 - - SSW 1014,6 16 -
21.10.2019 20:00:00 25,0 23,3 15 8 - - S 1014,1 16 1,3
21.10.2019 19:00:00 25,0 23,9 9 5 - - SSW 1014,2 13 0,0
21.10.2019 18:00:00 25,0 23,9 9 5 - - ESE 1014,0 11 2,0
21.10.2019 17:00:00 25,6 23,9 16 9 - - ESE 1014,2 2,4 2,8
21.10.2019 16:00:00 27,2 22,8 0 0 - - N 1014,3 16 -
21.10.2019 15:00:00 26,7 22,8 5 3 - - SE 1014,5 16 0,0
21.10.2019 14:00:00 27,2 22,2 9 5 - - ESE 1015,3 16 -
21.10.2019 13:00:00 27,2 21,7 15 8 - - ESE 1015,9 16 -
21.10.2019 12:00:00 27,8 21,7 11 6 - - SE 1015,8 16 -
21.10.2019 11:00:00 26,7 21,1 15 8 - - ESE 1015,6 16 -
21.10.2019 10:00:00 23,9 20,0 5 3 - - ESE 1015,8 16 -
21.10.2019 09:00:00 22,8 20,0 8 4 - - ENE 1015,6 16 -
21.10.2019 08:00:00 20,6 18,9 9 5 - - NNE 1015,4 16 -
21.10.2019 07:00:00 20,6 18,3 9 5 - - ENE 1014,6 16 -
21.10.2019 06:00:00 20,6 18,3 9 5 - - NNE 1014,8 16 -
21.10.2019 05:00:00 20,6 17,2 11 6 - - NNE 1014,6 16 -
21.10.2019 04:00:00 20,0 17,2 9 5 - - NNE 1014,6 16 -
21.10.2019 03:00:00 20,0 17,2 9 5 - - NNE 1015,0 16 -
21.10.2019 02:00:00 19,4 17,2 5 3 - - ESE 1015,2 16 -
21.10.2019 01:00:00 20,6 17,8 5 3 - - NE 1014,8 16 -
21.10.2019 00:00:00 20,6 17,8 8 4 - - NE 1015,0 16 -
20.10.2019 23:00:00 21,7 17,8 13 7 - - NNE 1014,9 16 -
20.10.2019 22:00:00 23,9 18,3 11 6 - - N 1014,4 16 -
20.10.2019 21:00:00 23,9 18,3 8 4 - - N 1013,9 16 -
20.10.2019 20:00:00 25,0 17,8 5 3 - - NNW 1013,3 16 -
20.10.2019 19:00:00 26,1 17,8 8 4 - - NW 1012,9 16 -
20.10.2019 18:00:00 27,2 17,2 13 7 - - NW 1012,4 16 -
20.10.2019 17:00:00 27,2 17,2 15 8 - - W 1012,4 16 -
20.10.2019 16:00:00 27,2 16,7 21 11 - - W 1012,4 16 -
20.10.2019 15:00:00 26,1 17,2 16 9 - - W 1012,4 16 -
20.10.2019 14:00:00 25,0 16,7 16 9 - - W 1012,7 16 -
20.10.2019 13:00:00 24,4 16,7 21 11 - - NW 1013,3 16 -
20.10.2019 12:00:00 22,8 16,7 21 11 - - WNW 1013,4 16 -
20.10.2019 11:00:00 22,2 16,7 22 12 - - WNW 1012,8 16 -
20.10.2019 10:00:00 22,2 17,2 21 11 - - WNW 1012,3 16 -
20.10.2019 09:00:00 21,7 17,2 29 16 - - W 1011,6 16 -
20.10.2019 08:00:00 21,1 17,2 35 19 55 30 W 1010,5 16 -
20.10.2019 07:00:00 22,2 17,8 35 19 52 28 W 1009,5 16 -
20.10.2019 06:00:00 23,3 18,9 35 19 55 30 W 1008,3 16 -
20.10.2019 05:00:00 23,3 19,4 24 13 - - WSW 1007,4 16 -
20.10.2019 04:00:00 24,4 20,6 22 12 - - WSW 1007,0 16 -
20.10.2019 03:00:00 24,4 21,7 18 10 - - SW 1006,8 16 -
20.10.2019 02:00:00 24,4 22,2 22 12 - - SSW 1006,9 16 -
20.10.2019 01:00:00 24,4 22,2 21 11 - - SSW 1006,9 16 -
20.10.2019 00:00:00 25,0 22,2 24 13 - - SSW 1007,1 16 0,0
19.10.2019 23:00:00 25,0 22,8 26 14 - - SSW 1006,6 11 0,3
19.10.2019 22:00:00 25,6 22,8 26 14 - - S 1005,9 16 -
19.10.2019 21:00:00 25,0 22,8 21 11 - - S 1006,0 16 0,0
19.10.2019 20:00:00 25,6 22,2 21 11 - - S 1005,7 16 0,0
19.10.2019 19:00:00 25,6 22,2 22 12 - - SSE 1005,4 16 -
19.10.2019 18:00:00 25,6 21,7 24 13 - - S 1005,2 16 0,0
19.10.2019 17:00:00 25,6 21,7 29 16 - - S 1005,4 16 0,0
19.10.2019 16:00:00 26,7 21,1 31 17 - - S 1006,1 16 -
19.10.2019 15:00:00 25,6 21,1 28 15 - - S 1006,4 16 -
19.10.2019 14:00:00 25,0 21,7 26 14 54 29 SSE 1007,4 16 0,0
19.10.2019 13:00:00 25,0 22,2 26 14 - - SSE 1008,9 16 0,0
19.10.2019 12:00:00 24,4 22,2 21 11 - - SSE 1009,9 16 0,0
19.10.2019 11:00:00 23,3 22,2 24 13 - - SE 1010,5 4,8 0,3
19.10.2019 10:00:00 23,3 22,2 28 15 - - ESE 1010,6 16 1,0
19.10.2019 09:00:00 22,8 21,1 22 12 - - ESE 1010,9 8 1,0
19.10.2019 08:00:00 22,2 19,4 22 12 - - ESE 1010,9 15 0,0
19.10.2019 07:00:00 22,2 19,4 15 8 - - E 1011,2 10 3,8
19.10.2019 06:00:00 21,1 19,4 26 14 50 27 ESE 1011,1 13 0,8
19.10.2019 05:00:00 21,1 19,4 37 20 - - ESE 1010,2 10 0,8
19.10.2019 04:00:00 21,7 19,4 26 14 - - SE 1011,2 16 0,3
19.10.2019 03:00:00 21,7 19,4 21 11 - - SE 1011,7 11 0,5
19.10.2019 02:00:00 22,2 20,0 21 11 - - ESE 1011,7 16 0,5
19.10.2019 01:00:00 20,6 17,8 8 4 - - ESE 1012,3 16 0,0
19.10.2019 00:00:00 22,2 16,7 8 4 - - SE 1013,0 16 0,0
18.10.2019 23:00:00 22,2 15,6 8 4 - - S 1013,1 16 0,0
18.10.2019 22:00:00 21,7 15,6 11 6 - - E 1012,8 16 0,0
18.10.2019 21:00:00 21,7 15,0 11 6 - - ESE 1013,4 16 0,0
18.10.2019 20:00:00 22,2 13,3 9 5 - - ENE 1012,5 16 -
18.10.2019 19:00:00 22,2 13,3 8 4 - - ENE 1012,6 16 -
18.10.2019 18:00:00 22,8 12,8 11 6 - - E 1013,0 16 -
18.10.2019 17:00:00 23,9 12,8 13 7 - - E 1013,7 16 -
18.10.2019 16:00:00 23,9 11,7 13 7 - - ESE 1013,5 16 -
18.10.2019 15:00:00 24,4 10,0 5 3 - - SE 1013,7 16 -
18.10.2019 14:00:00 23,9 13,3 11 6 - - E 1013,7 16 -
18.10.2019 13:00:00 22,8 13,3 0 0 - - N 1014,7 16 -
18.10.2019 12:00:00 21,7 12,8 15 8 - - N 1014,8 16 -
18.10.2019 11:00:00 18,9 11,1 5 3 - - NW 1015,4 16 -
18.10.2019 10:00:00 18,3 10,6 5 3 - - NW 1015,5 16 -
18.10.2019 09:00:00 18,9 11,1 11 6 - - NNW 1014,7 16 -
18.10.2019 08:00:00 17,8 9,4 8 4 - - NNW 1013,8 16 -
18.10.2019 07:00:00 17,2 8,9 9 5 - - NNW 1013,4 16 -
18.10.2019 06:00:00 17,8 8,3 13 7 - - NNE 1012,8 16 -
18.10.2019 05:00:00 17,2 10,0 11 6 - - N 1012,5 16 -
18.10.2019 04:00:00 16,1 10,0 0 0 - - N 1013,2 16 -
18.10.2019 03:00:00 16,7 11,1 5 3 - - W 1013,8 16 -
18.10.2019 02:00:00 17,8 8,9 11 6 - - W 1013,8 16 -
18.10.2019 01:00:00 18,9 9,4 11 6 - - NNW 1013,4 16 -
18.10.2019 00:00:00 17,8 12,2 11 6 - - W 1014,3 16 -
17.10.2019 23:00:00 18,9 11,7 9 5 - - WSW 1014,0 16 -
17.10.2019 22:00:00 20,0 11,1 5 3 - - WNW 1013,2 16 -
17.10.2019 21:00:00 21,1 8,9 9 5 - - NW 1012,6 16 -
17.10.2019 20:00:00 21,7 8,9 11 6 - - NW 1012,5 16 -
17.10.2019 19:00:00 22,2 8,3 8 4 - - W 1012,3 16 -
17.10.2019 18:00:00 23,3 7,8 13 7 - - WSW 1012,5 16 -
17.10.2019 17:00:00 23,9 6,1 11 6 - - W 1012,2 16 -
17.10.2019 16:00:00 23,9 7,2 11 6 - - WSW 1012,2 16 -
17.10.2019 15:00:00 22,2 11,1 11 6 - - SSE 1012,5 16 -

tt = temperature
td = dewpoint
ff = wind speed
fx = gusts
dd = wind direction
ppp = reduced air pressure
vv = visibility
rr = precipitation

Next stations